Andover, NJ

1:57 PM EDT on May 26, 2017 (GMT -0400)
Andover

Weather History for K12N - May, 2014

Change the Weather History Date:

Wednesday, May 14, 2014

  Actual Average (KFWN) Record (KFWN)
Temperature  
Mean Temperature 62 °F -  
Max Temperature 73 °F 70 °F 89 °F (1991)
Min Temperature 50 °F 42 °F 30 °F (1951)
Degree Days  
Heating Degree Days 4    
Growing Degree Days 12 (Base 50)    
Moisture  
Dew Point 51 °F    
Average Humidity 72    
Maximum Humidity 96    
Minimum Humidity 56    
Precipitation  
Precipitation 0.00 in - - ()
Sea Level Pressure  
Sea Level Pressure 30.25 in    
Wind  
Wind Speed 3 mph (SSW)    
Max Wind Speed 10 mph    
Max Gust Speed -    
Averages and records for this station are not official NWS values.
T = Trace of Precipitation, MM = Missing Value Source: NWS Daily Summary

Daily Weather History Graph

Daily Weather History Graph

Search for Another Location

Airport or City:

Trip Planner

Search our weather history database for the weather conditions in past years. The results will help you decide how hot, cold, wet, or windy it might be!

Date:

Astronomy

May. 14, 2014 Rise Set
Actual Time 5:42 AM EDT 8:09 PM EDT
Civil Twilight 5:10 AM EDT 8:40 PM EDT
Nautical Twilight 4:32 AM EDT 9:19 PM EDT
Astronomical Twilight 3:49 AM EDT 10:02 PM EDT
Moon 8:11 PM EDT (5/14) 5:39 AM EDT (5/14)
Length of Visible Light 15h 29m
Length of Day
14h 26m
Full, 100% of the Moon is Illuminated
May 14
Full
May 14
Full
May 21
Last Quarter
May 28
New
Jun 5
First Quarter

Hourly Weather History & Observations

Time (EDT) Temp. Dew Point Humidity Pressure Visibility Wind Dir Wind Speed Gust Speed Precip Events Conditions
12:54 AM 52.0 °F 42.1 °F 69% 30.27 in - South 3.5 mph - N/A   Unknown
1:54 AM 51.1 °F 43.0 °F 74% 30.25 in - Calm Calm - N/A   Unknown
2:54 AM 50.0 °F 42.1 °F 74% 30.24 in - Calm Calm - N/A   Unknown
3:54 AM 50.0 °F 42.1 °F 74% 30.26 in - Calm Calm - N/A   Unknown
4:54 AM 51.1 °F 43.0 °F 74% 30.26 in - Variable 3.5 mph - N/A   Unknown
5:54 AM 51.1 °F 44.1 °F 77% 30.29 in - Calm Calm - N/A   Unknown
6:54 AM 51.1 °F 45.0 °F 80% 30.30 in - Calm Calm - N/A   Unknown
7:54 AM 53.1 °F 46.0 °F 77% 30.30 in - Calm Calm - N/A   Unknown
8:54 AM 55.0 °F 46.0 °F 72% 30.30 in - Calm Calm - N/A   Unknown
9:54 AM 57.9 °F 48.0 °F 70% 30.29 in - Variable 4.6 mph - N/A   Unknown
11:54 AM 64.0 °F 50.0 °F 60% 30.27 in - SSW 6.9 mph - N/A   Unknown
12:54 PM 66.0 °F 50.0 °F 56% 30.26 in - SW 8.1 mph - N/A   Unknown
1:54 PM 69.1 °F 53.1 °F 57% 30.23 in - SW 9.2 mph - N/A   Unknown
2:54 PM 70.0 °F 54.0 °F 57% 30.23 in - Variable 5.8 mph - N/A   Unknown
3:54 PM 72.0 °F 55.9 °F 57% 30.21 in - Variable 6.9 mph - N/A   Unknown
4:54 PM 73.0 °F 57.0 °F 57% 30.20 in - SW 10.4 mph - N/A   Unknown
5:54 PM 72.0 °F 57.9 °F 61% 30.20 in - SSW 8.1 mph - N/A   Unknown
6:54 PM 69.1 °F 59.0 °F 70% 30.20 in - SSW 5.8 mph - N/A   Unknown
7:54 PM 66.9 °F 59.0 °F 76% 30.22 in - Variable 4.6 mph - N/A   Unknown
8:54 PM 62.1 °F 57.9 °F 86% 30.22 in - Variable 4.6 mph - N/A   Unknown
9:54 PM 60.1 °F 57.9 °F 93% 30.23 in - Variable 3.5 mph - N/A   Unknown
10:54 PM 59.0 °F 57.9 °F 96% 30.23 in - Variable 3.5 mph - N/A   Unknown
11:54 PM 60.1 °F 59.0 °F 96% 30.23 in - Calm Calm - N/A   Unknown